Regional Weather Roundup
Issued by NWS

Home | Current Version | Previous Version | Graphics & Text | Print | Product List | Glossary On
Versions: 1 2 3 4 5 6 7 8 9 10 11 12 13 14 15 16 17 18 19 20 21 22 23 24 25 26 27 28 29 30 31 32 33 34 35 36 37 38 39 40 41 42 43 44 45 46 47 48 49 50
000
ASUS45 KSLC 222010
RWRUT

UTAH REGIONAL WEATHER ROUNDUP
NATIONAL WEATHER SERVICE SALT LAKE CITY UT
200 PM MDT FRI MAY 22 2015

UTZ001>011-023>025-222100-

NORTHERN UTAH

CITY           SKY/WX    TMP DP  RH WIND       PRES   REMARKS
BRIGHAM CITY   CLOUDY    63  42  46 CALM      29.89S
HILL AFB       LGT RAIN  53  46  77 W8        29.90S
LOGAN          SUNNY     61  44  53 CALM      29.88F
OGDEN          LGT RAIN  60  47  61 SW13      29.88F
PROVO AIRPORT  NOT AVBL
SALT LAKE CITY CLOUDY    64  41  42 W9        29.88F
VERNAL         CLOUDY    57  38  48 S5        29.95F
WENDOVER       CLOUDY    63  45  51 NW6       29.89F
HEBER CITY     CLOUDY    50  41  71 CALM      29.96F
WEST JORDAN    PTSUNNY   63  39  42 SW14      29.91F

$$

UTZ012>022-026-027-222100-

SOUTHERN/CENTRAL UTAH

CITY           SKY/WX    TMP DP  RH WIND       PRES   REMARKS
BLANDING       MOSUNNY   67  18  15 S18G24    30.01F
BRYCE CANYON   PTSUNNY   57  23  26 SE18G28   29.96F
CEDAR CITY     LGT RAIN  56  33  42 S16G22    29.90F
DELTA          PTSUNNY   64  34  32 E5        29.87S
HANKSVILLE     PTSUNNY   72  23  16 S8        29.84F
MILFORD        CLOUDY    64  29  26 S13       29.88F
MOAB/CYNLANDS  MOSUNNY   72  27  18 S8G20     29.83F
PRICE          PTSUNNY   57  34  41 W26G36    29.93S
ST GEORGE      CLOUDY    70  34  26 S12       29.86S

$$

REGIONAL REPORTS     COLORADO/ARIZONA

CITY           SKY/WX    TMP DP  RH WIND       PRES   REMARKS
CRAIG, CO      CLOUDY    58  41  53 SW7       29.98F
GRAND JUNCTION PTSUNNY   63  36  36 N8        29.89F
RIFLE          PTSUNNY   60  42  51 N8        29.94F
MONTROSE       LGT RAIN  63  32  31 CALM      29.93F
CORTEZ         PTSUNNY   66  33  29 SE10G20   29.95F
PAGE, AZ       NOT AVBL
GRAND CANYON   NOT AVBL
KINGMAN        LGT RAIN  58  40  51 SW20G26   29.89F
FLAGSTAFF      MOSUNNY   54  23  30 S21G32    29.99F

$$

REGIONAL REPORTS    NEVADA/IDAHO/WYOMING

CITY           SKY/WX    TMP DP  RH WIND       PRES   REMARKS
LAS VEGAS, NV  LGT RAIN  68  56  65 W22G29    29.79F
ELY            CLOUDY    52  33  48 S14       29.95F
ELKO           CLOUDY    58  40  51 N10       29.91R
POCATELLO, ID  PTSUNNY   63  45  51 VRB3      29.89F
BURLEY         LGT RAIN  58  50  75 NW9       29.87F
EVANSTON, WY   PTSUNNY   54  40  59 SW13      29.96F
ROCK SPRINGS   CLOUDY    49  40  71 S8        29.98S
KEMMERER       PTSUNNY   52  37  58 N15       29.98R

$$



USA.gov is the U.S. government's official web portal to all federal, state and local government web resources and services.